Погода в Зарафшане

Узбекистан     41°34′07″N   64°12′09″E
темп.,
°C
ветер,
м/с
пор.,
м/с
влажн.,
%
обл.,
%
осадки,
мм/ч
давл.,
гПа
погр.,
м
28 сентября, вт
вт2823:00+16всв22400 0.0 101711
02:00+15всв22430 0.0 101611
05:00+14ссз11480 0.0 101611
08:00+16с00415 0.0 101653
11:00+19з22326 0.0 10161055
14:00+22зсз44255 0.0 10141339
17:00+22сз552499 0.0 10141350
20:00+19с453094 0.0 1015103
29 сентября, ср
ср2923:00+18с2332100 0.0 101522
02:00+16ссв454253 0.0 101566
05:00+15ссв34530 0.0 101647
08:00+16ссв34480 0.0 1017137
11:00+19с43360 0.0 1018773
14:00+21ссз54300 0.0 10171293
17:00+21ссз55280 0.0 10171387
20:00+18ссз46350 0.0 1018133
30 сентября, чт
чт3023:00+17ссв45390 0.0 101990
02:00+15св44470 0.0 101962
05:00+14всв44480 0.0 101956
08:00+15всв45430 0.0 1020170
11:00+19всв33330 0.0 1020673
14:00+22св44300 0.0 10181265
17:00+21ссв66320 0.0 10181243
20:00+18св610380 0.0 1019401
1 октября, пт
пт123:00+14св7124471 0.0 1019335
02:00+12всв6114477 0.0 1020280
05:00+11св511460 0.0 1020249
08:00+11всв61044100 0.0 1021294
11:00+16св6735100 0.0 1020460
14:00+16ссв663346 0.0 1020662
17:00+17ссв883196 0.0 1020854
20:00+15ссв793495 0.0 1022585
2 октября, сб
сб223:00+12ссв583714 0.0 1022300
02:00+11ссв583812 0.0 1023291
05:00+10ссв57385 0.0 1024312
08:00+10ссв683813 0.0 1025365
11:00+13ссв552929 0.0 1025722
14:00+15ссв76235 0.0 10251177
17:00+15ссв78183 0.0 10241313
20:00+12ссв610225 0.0 1026391